Location: Paris
(48.6709°N, 2.3750°E)
Time: 19:48:11
(UTC+02:00)

CUBESAT XI-V - Pass Details

Date: 02 July 2022
Orbit: 667 x 690 km, 98.1° (Epoch: 08 August)

Event Time Altitude Azimuth Distance (km) Brightness Sun altitude
Exits shadow 03:55:20 19° 192° (SSW) 1,579 ? -13.4°
Maximum altitude 03:58:23 49° 260° (W) 870 ? -13.1°
Drops below altitude 10° 04:02:52 10° 336° (NNW) 2,109 ? -12.8°
Sets 04:05:10 0° 342° (NNW) 3,026 ? -12.6°
